www.pogodaiklimat.ru

Погода и климат >> Архив погоды >> Южная Африка >> Форт-Бофорт


ПОГОДА в Форт-Бофорте

  • Прогноз погоды в Форт-Бофорте
  • Монитор погоды в Форт-Бофорте

АРХИВ ПОГОДЫ в Форт-Бофорте

Время (UTC), дата Ветер
(напр.,м/с)
 
Видим.   Явления Облачность Т
(С)
Тd
(С)
f
(%)
Тe
(С)
Тes
(С)
Комфортность P
(гПа)
Po
(гПа)
Тmin
(С)
Tmax
(С)
R
(мм)
R24
(мм)
S
(см)
15 14.07 СЗ 4 н/о н/о +28.0 -6.1 10 +25 +25 комфорт 963.0 +28.0 +30.2
18 14.07 Ю 3 н/о н/о +19.1 +3.0 34 +20 +20 965.2 +19.0 +30.2
21 14.07 Ю 2 н/о н/о +13.6 +3.4 50 +13 +13 966.8 +13.6 +30.2
00 15.07 СЗ 2 н/о н/о +8.9 +2.2 63 +7 +7 966.7 +8.9 +30.2
06 15.07 З 2 н/о н/о +5.7 +0.6 70 +4 +4 968.4 +4.8
09 15.07 ЮЗ 2 н/о н/о +14.3 +6.4 59 +14 +14 969.1 +4.8 +14.3
12 15.07 ЮВ 5 н/о н/о +19.8 +10.0 53 +21 +21 комфорт 967.2 +4.8 +20.0
15 15.07 ЮВ 3 н/о н/о +18.2 +9.6 57 +18 +18 967.9 +18.2 +20.3
18 15.07 Ю 2 н/о н/о +12.9 +10.1 83 +12 +12 969.7 +12.9 +20.3
21 15.07 СВ 1 н/о н/о +13.1 +10.3 83 +13 +13 970.0 +12.4 +20.3
00 16.07 З 2 н/о н/о +12.9 +9.9 82 +12 +12 969.2 +12.4 +20.3
03 16.07 З 2 н/о н/о +11.6 +9.3 86 +10 +10 968.5 +11.6 +20.3
06 16.07 СЗ 2 н/о н/о +10.7 +8.6 87 +9 +9 969.2 +10.7
09 16.07 ЮВ 1 н/о н/о +18.7 +9.0 53 +20 +20 968.1 +10.4 +18.7
12 16.07 СЗ 9 н/о н/о +29.1 -2.8 12 +26 +26 жарко 965.1 +10.4 +29.3
15 16.07 СЗ 5 н/о н/о +27.1 -3.3 13 +24 +24 комфорт 964.8 +27.1 +29.6
18 16.07 СЗ 3 н/о н/о +23.1 -3.8 16 +21 +21 комфорт 965.7 +21.9 +29.6
21 16.07 СЗ 3 н/о н/о +22.7 -5.0 15 +21 +21 комфорт 965.7 +21.9 +29.6
00 17.07 СЗ 3 н/о н/о +22.1 -4.7 16 +21 +21 комфорт 965.4 +20.5 +29.6
03 17.07 СЗ 4 н/о н/о +22.0 -4.7 16 +21 +21 комфорт 964.5 +20.5 +29.6
06 17.07 СЗ 5 н/о н/о +22.4 -3.6 17 +21 +21 комфорт 965.5 +20.5
09 17.07 СЗ 7 н/о н/о +27.9 -2.7 13 +25 +25 комфорт 965.3 +20.5 +27.9
12 17.07 З 8 н/о н/о +29.9 -4.6 10 +26 +26 жарко 963.0 +20.5 +30.0
15 17.07 ЮЗ 5 н/о н/о +25.6 -1.8 16 +24 +24 комфорт 963.1 +25.6 +30.2
18 17.07 Ю 2 н/о н/о +17.7 -1.4 27 +18 +18 965.1 +17.4 +30.2
21 17.07 СЗ 2 н/о н/о +10.8 +0.8 50 +10 +10 965.5 +10.8 +30.2
00 18.07 СЗ 2 н/о н/о +9.3 -0.8 49 +8 +8 965.1 +9.1 +30.2
03 18.07 СЗ 3 н/о н/о +7.4 -0.7 56 +5 +5 963.8 +7.3 +30.2
06 18.07 Ю 2 н/о н/о +10.3 -2.3 41 +9 +9 964.0 +7.3
09 18.07 ЮВ 2 н/о н/о +24.5 -5.4 13 +22 +22 комфорт 964.4 +7.3 +24.5
12 18.07 З 6 н/о н/о +28.1 -3.6 12 +25 +25 комфорт 961.7 +7.3 +28.1
15 18.07 З 2 н/о н/о +27.1 -1.4 15 +25 +25 комфорт 960.4 +27.1 +28.9
18 18.07 СЗ 1 н/о н/о +17.9 -0.7 28 +19 +19 960.8 +17.8 +28.9
21 18.07 СЗ 2 н/о н/о +15.6 -0.0 34 +16 +16 961.0 +14.3 +28.9
00 19.07 СЗ 3 н/о н/о +14.6 +0.8 39 +14 +14 959.8 +13.9 +28.9
03 19.07 З 3 н/о н/о +14.6 +1.5 41 +14 +14 958.3 +12.5 +28.9
06 19.07 СЗ 6 н/о н/о +20.3 +3.6 33 +20 +20 958.6 +12.5
09 19.07 З 7 н/о н/о +22.3 +6.3 35 +23 +23 комфорт 958.8 +12.5 +22.3
12 19.07 Ю 7 н/о н/о +16.8 +10.7 67 +16 +16 959.3 +12.5 +23.1
15 19.07 ЮЗ 5 н/о н/о +13.8 +6.7 62 +12 +12 962.0 +13.8 +23.1
18 19.07 ЮЗ 5 н/о н/о +12.7 +3.1 52 +11 +11 964.2 +12.6 +23.1
21 19.07 З 3 н/о н/о +10.5 +5.0 69 +9 +9 965.6 +10.5 +23.1
00 20.07 З 5 н/о н/о +10.3 +1.9 56 +8 +8 966.3 +10.3 +23.1
03 20.07 З 6 н/о н/о +8.7 -0.3 53 +5 +5 967.7 +8.7 +23.1
06 20.07 З 4 н/о н/о +7.7 -0.2 57 +5 +5 970.5 +7.6
09 20.07 ЮЗ 8 н/о н/о +10.0 +1.1 54 +6 +6 973.0 +7.6 +10.8
12 20.07 ЮЗ 6 н/о н/о +10.8 +1.9 54 +8 +8 972.8 +7.6 +12.0
15 20.07 ЮЗ 3 н/о н/о +8.1 +2.5 68 +6 +6 975.1 +7.8 +12.0
18 20.07 З 2 н/о н/о +5.9 +2.0 76 +4 +4 976.8 +5.9 +12.0
21 20.07 штиль 0 н/о н/о +3.8 +1.0 82 +3 +3 977.6 +3.8 +12.0
00 21.07 З 3 н/о н/о +3.9 +0.9 81 +1 +1 977.3 +3.7 +12.0
03 21.07 З 2 н/о н/о +2.0 -0.2 85 -1 -1 976.6 +2.0 +12.0
06 21.07 З 2 н/о н/о +2.4 -0.5 81 -1 -1 975.7 +0.9
09 21.07 ЮВ 1 н/о н/о +11.7 -0.4 43 +12 +12 974.8 +0.9 +11.7

 

Местоположение метеостанции Форт-Бофорт (Южная Африка): широта -32.78 долгота 26.63 высота над уровнем моря 455 м.

В архиве по умолчанию представлена погода в Форт-Бофорте за последнюю неделю. Архивные данные за месяц целиком и за предыдущие месяцы, начиная с января 2011 года, Вы можете получить, выбрав интересующий диапазон дат из раскрывающегося списка и нажав кнопку "Ввод!".


*Определитесь, кто Вы:
робот инопланетянин человек

Внимание! Время в таблицах - всемирное. Для получения местного времени необходимо прибавить поправку, которая равна 2 ч.

Смотрите также архив погоды в соседних городах и на ближайших метеорологических станциях:

Погода в Грейамстауне (Южная Африка) (57 км)
Погода в Аэропорту Бишо (Южная Африка) (62 км)
Погода в Стуттерхейме (Южная Африка) (84 км)
Погода в Порт-Альфред (Южная Африка) (90 км)
Погода в Куинстаун аэропорту (Южная Африка) (100 км)
Погода в Куинстауне (Южная Африка) (100 км)
Погода в Парке Addo Elephant (Южная Африка) (110 км)
Погода в Ист-Лондоне (Южная Африка) (115 км)
Погода в Сомерсет-Ист (Южная Африка) (117 км)
Погода в Крадоке (Южная Африка) (117 км)

Пояснения к столбцам:

Ветер - указаны скорость ветра в м/с - средняя за 10 мин, порывы в срок и между сроками (в фигурных скобках) и направление, откуда дует ветер: С - северный, СВ - северо-восточный, В - восточный, ЮВ - юго-восточный, Ю - южный, ЮЗ - юго-западный, З - западный, СЗ - северо-западный.
Видимость - горизонтальная дальность видимости в метрах или километрах. При видимости от 1 до 10 км при отсутствии осадков обычно наблюдается дымка, при ухудшении видимости до 1 км и менее - туман. В сухую погоду видимость может ухудшаться дымом, пылью или мглою.
Явления - указаны атмосферные явления, наблюдавшиеся в срок или в последний час перед сроком; фигурными скобками обозначены явления, наблюдавшиеся между сроками (за 1-3 часа до срока); квадратными скобками обозначены град или гололедные отложения с указанием их диаметра в мм.
Облачность - указаны через наклонную черту общая и нижняя облачность в баллах и высота нижней границы облаков в метрах; квадратными скобками обозначены формы облаков: Ci - перистые, Cs - перисто-слоистые, Cc - перисто-кучевые, Ac - высококучевые, As - высокослоистые, Sc - слоисто-кучевые, Ns - слоисто-дождевые, Cu - кучевые, Cb - кучево-дождевые. Подробнее классификацию облаков см. в Атласе облаков (PDF).
T - Температура воздуха - температура, измеренная на высоте 2 м над землей.
Td - Температура точки росы - температура, при понижении до которой содержащийся в воздухе водяной пар достигнет насыщения.
f - Относительная влажность воздуха - влажноcть воздуха, измеренная на высоте 2 м над землей.
Te - Эффективная температура - температура, которую ощущает одетый по сезону человек в тени. Характеристика душности погоды. При расчете учитывается влияние влажности воздуха и скорости ветра на теплоощущения человека.
Tes - Эффективная температура на солнце - температура, которую ощущает человек, с поправкой на солнечный нагрев. Характеристика знойности погоды. Зависит от высоты солнца над горизонтом, облачности и скорости ветра. Ночью, в пасмурную погоду, а также при ветре 12 м/с и более поправка равна нулю.
P - Атмосферное давление - приведенное к уровню моря атмосферное давление.
Po - Атмосферное давление - измеренное на уровне метеостанции атмосферное давление.
Tmin - Минимальная температура - минимум температуры воздуха на высоте 2 м над землей.
Tmax - Максимальная температура - максимум температуры воздуха на высоте 2 м над землей.
R - Количество осадков - Количество выпавших осадков за период времени, мм. При наведении курсора мыши на число - период времени, за который выпало указанное количество осадков.
R24 - Количество осадков - Количество выпавших осадков за 24 часа, мм.
S - Снежный покров - Высота снежного покрова, см. При наведении курсора мыши на число - состояние снежного покрова и степень покрытия местности в баллах.